• Em Portugal
  • Lista de países
  • Para 7 dias
  • Temperatura da água
  • Mapas de satélite
  • Mapa do tempo
  • Widgets de tempo
  • user-avatar
    Iniciar Sessão

    Previsão horária em Francistown

    Hoje, 18 Julho, Quarta-feira

    Tempo Temperatura Precipitação Vento Pressão Humidade
    00:00 +10°C° 0 mm 4 m/s 685 mmHg 77%
    01:00 +8°C° 0 mm 4 m/s 685 mmHg 80%
    02:00 +8°C° 0 mm 4 m/s 685 mmHg 84%
    03:00 +8°C° 0 mm 4 m/s 685 mmHg 85%
    04:00 +8°C° 0 mm 5 m/s 685 mmHg 86%
    05:00 +8°C° 0 mm 5 m/s 685 mmHg 87%
    06:00 +9°C° 0 mm 5 m/s 685 mmHg 85%
    07:00 +9°C° 0 mm 6 m/s 685 mmHg 83%
    08:00 +10°C° 0 mm 6 m/s 685 mmHg 79%
    09:00 +11°C° 0 mm 6 m/s 685 mmHg 74%
    10:00 +12°C° 0 mm 7 m/s 686 mmHg 69%
    11:00 +12°C° 0 mm 7 m/s 686 mmHg 64%
    12:00 +14°C° 0 mm 7 m/s 685 mmHg 61%
    13:00 +14°C° 0 mm 7 m/s 685 mmHg 58%
    14:00 +15°C° 0 mm 6 m/s 685 mmHg 55%
    15:00 +15°C° 0 mm 6 m/s 684 mmHg 54%
    16:00 +14°C° 0 mm 6 m/s 684 mmHg 54%
    17:00 +14°C° 0 mm 5 m/s 684 mmHg 54%
    18:00 +13°C° 0 mm 5 m/s 684 mmHg 58%
    19:00 +13°C° 0 mm 4 m/s 684 mmHg 61%
    20:00 +12°C° 0 mm 4 m/s 684 mmHg 65%
    21:00 +11°C° 0 mm 4 m/s 685 mmHg 68%
    22:00 +11°C° 0 mm 4 m/s 685 mmHg 71%
    23:00 +10°C° 0 mm 4 m/s 685 mmHg 74%

    Amanhã, 19 Julho, Quinta-feira

    Tempo Temperatura Precipitação Vento Pressão Humidade
    00:00 +10°C° 0 mm 4 m/s 685 mmHg 76%
    01:00 +8°C° 0 mm 4 m/s 684 mmHg 78%
    02:00 +8°C° 0 mm 4 m/s 684 mmHg 80%
    03:00 +8°C° 0 mm 4 m/s 684 mmHg 83%
    04:00 +8°C° 0 mm 4 m/s 684 mmHg 86%
    05:00 +7°C° 0 mm 4 m/s 684 mmHg 89%
    06:00 +8°C° 0 mm 5 m/s 684 mmHg 88%
    07:00 +8°C° 0 mm 5 m/s 684 mmHg 86%
    08:00 +9°C° 0 mm 6 m/s 684 mmHg 85%
    09:00 +10°C° 0 mm 6 m/s 685 mmHg 77%
    10:00 +13°C° 0 mm 6 m/s 685 mmHg 69%
    11:00 +14°C° 0 mm 6 m/s 685 mmHg 61%
    12:00 +15°C° 0 mm 6 m/s 685 mmHg 59%
    13:00 +15°C° 0 mm 6 m/s 684 mmHg 57%
    14:00 +16°C° 0 mm 6 m/s 683 mmHg 54%
    15:00 +15°C° 0 mm 6 m/s 683 mmHg 54%
    16:00 +15°C° 0 mm 6 m/s 683 mmHg 54%
    17:00 +15°C° 0 mm 5 m/s 682 mmHg 54%
    18:00 +14°C° 0 mm 5 m/s 683 mmHg 58%
    19:00 +13°C° 0 mm 4 m/s 683 mmHg 63%
    20:00 +12°C° 0 mm 4 m/s 683 mmHg 67%
    21:00 +11°C° 0 mm 4 m/s 683 mmHg 69%
    22:00 +11°C° 0 mm 4 m/s 683 mmHg 71%
    23:00 +10°C° 0 mm 3 m/s 683 mmHg 72%

    Depois de amanhã, 20 Julho, Sexta-feira

    Tempo Temperatura Precipitação Vento Pressão Humidade
    00:00 +10°C° 0 mm 3 m/s 683 mmHg 74%
    01:00 +9°C° 0 mm 3 m/s 683 mmHg 75%
    02:00 +9°C° 0 mm 3 m/s 683 mmHg 77%
    03:00 +9°C° 0 mm 3 m/s 682 mmHg 79%
    04:00 +8°C° 0 mm 3 m/s 682 mmHg 81%
    05:00 +8°C° 0 mm 3 m/s 682 mmHg 83%
    06:00 +7°C° 0 mm 4 m/s 682 mmHg 81%
    07:00 +8°C° 0 mm 4 m/s 683 mmHg 79%
    08:00 +9°C° 0 mm 5 m/s 683 mmHg 77%
    09:00 +12°C° 0 mm 5 m/s 684 mmHg 69%
    10:00 +14°C° 0 mm 5 m/s 684 mmHg 61%
    11:00 +16°C° 0 mm 5 m/s 685 mmHg 53%
    12:00 +17°C° 0 mm 5 m/s 684 mmHg 48%
    13:00 +19°C° 0 mm 4 m/s 683 mmHg 43%
    14:00 +20°C° 0 mm 4 m/s 683 mmHg 38%
    15:00 +20°C° 0 mm 4 m/s 682 mmHg 39%
    16:00 +20°C° 0 mm 4 m/s 682 mmHg 40%
    17:00 +19°C° 0 mm 4 m/s 681 mmHg 41%
    18:00 +18°C° 0 mm 4 m/s 682 mmHg 47%
    19:00 +15°C° 0 mm 4 m/s 682 mmHg 52%
    20:00 +14°C° 0 mm 4 m/s 682 mmHg 58%
    21:00 +13°C° 0 mm 4 m/s 682 mmHg 62%
    22:00 +13°C° 0 mm 4 m/s 682 mmHg 65%
    23:00 +12°C° 0 mm 4 m/s 683 mmHg 69%

    21 Julho, Sábado

    Tempo Temperatura Precipitação Vento Pressão Humidade
    00:00 +12°C° 0 mm 4 m/s 682 mmHg 73%
    01:00 +11°C° 0 mm 4 m/s 682 mmHg 77%
    02:00 +11°C° 0 mm 4 m/s 682 mmHg 81%
    03:00 +10°C° 0 mm 3 m/s 682 mmHg 83%
    04:00 +10°C° 0 mm 3 m/s 682 mmHg 86%
    05:00 +10°C° 0 mm 3 m/s 682 mmHg 88%
    06:00 +10°C° 0 mm 4 m/s 682 mmHg 84%
    07:00 +11°C° 0 mm 4 m/s 683 mmHg 81%
    08:00 +10°C° 0 mm 5 m/s 683 mmHg 78%
    09:00 +14°C° 0 mm 5 m/s 684 mmHg 69%
    10:00 +16°C° 0 mm 5 m/s 684 mmHg 61%
    11:00 +19°C° 0 mm 5 m/s 685 mmHg 53%
    12:00 +20°C° 0 mm 5 m/s 684 mmHg 48%
    13:00 +21°C° 0 mm 5 m/s 684 mmHg 43%
    14:00 +22°C° 0 mm 4 m/s 683 mmHg 39%
    15:00 +22°C° 0 mm 4 m/s 683 mmHg 40%
    16:00 +21°C° 0 mm 5 m/s 682 mmHg 41%
    17:00 +21°C° 0 mm 5 m/s 682 mmHg 43%
    18:00 +19°C° 0 mm 4 m/s 682 mmHg 48%
    19:00 +18°C° 0 mm 4 m/s 683 mmHg 53%
    20:00 +15°C° 0 mm 4 m/s 683 mmHg 59%
    21:00 +15°C° 0 mm 4 m/s 683 mmHg 61%
    22:00 +14°C° 0 mm 4 m/s 683 mmHg 63%
    23:00 +14°C° 0 mm 4 m/s 684 mmHg 65%

    22 Julho, Domingo

    Tempo Temperatura Precipitação Vento Pressão Humidade
    00:00 +13°C° 0 mm 4 m/s 683 mmHg 67%
    01:00 +12°C° 0 mm 4 m/s 683 mmHg 69%
    02:00 +12°C° 0 mm 3 m/s 683 mmHg 72%
    03:00 +11°C° 0 mm 3 m/s 683 mmHg 73%
    04:00 +11°C° 0 mm 3 m/s 683 mmHg 75%
    05:00 +11°C° 0 mm 3 m/s 683 mmHg 77%
    06:00 +11°C° 0 mm 4 m/s 683 mmHg 74%
    07:00 +12°C° 0 mm 4 m/s 684 mmHg 71%
    08:00 +12°C° 0 mm 5 m/s 685 mmHg 68%
    09:00 +14°C° 0 mm 5 m/s 685 mmHg 60%
    10:00 +17°C° 0 mm 5 m/s 685 mmHg 53%
    11:00 +20°C° 0 mm 5 m/s 685 mmHg 45%
    12:00 +21°C° 0 mm 5 m/s 685 mmHg 41%
    13:00 +22°C° 0 mm 5 m/s 684 mmHg 38%
    14:00 +23°C° 0 mm 5 m/s 684 mmHg 35%
    15:00 +22°C° 0 mm 5 m/s 683 mmHg 36%
    16:00 +22°C° 0 mm 5 m/s 683 mmHg 38%
    17:00 +21°C° 0 mm 5 m/s 683 mmHg 39%
    18:00 +20°C° 0 mm 5 m/s 683 mmHg 45%
    19:00 +19°C° 0 mm 4 m/s 683 mmHg 50%
    20:00 +17°C° 0 mm 4 m/s 683 mmHg 55%
    21:00 +17°C° 0 mm 4 m/s 683 mmHg 59%
    22:00 +15°C° 0 mm 4 m/s 684 mmHg 63%
    23:00 +14°C° 0 mm 4 m/s 684 mmHg 67%

    23 Julho, Segunda-feira

    Tempo Temperatura Precipitação Vento Pressão Humidade
    00:00 +14°C° 0 mm 4 m/s 683 mmHg 71%
    01:00 +13°C° 0 mm 4 m/s 683 mmHg 75%
    02:00 +13°C° 0 mm 4 m/s 683 mmHg 79%
    03:00 +12°C° 0 mm 4 m/s 683 mmHg 81%
    04:00 +12°C° 0 mm 4 m/s 683 mmHg 82%
    05:00 +11°C° 0 mm 4 m/s 683 mmHg 83%
    06:00 +12°C° 0 mm 4 m/s 683 mmHg 79%
    07:00 +12°C° 0 mm 5 m/s 684 mmHg 75%
    08:00 +13°C° 0 mm 5 m/s 684 mmHg 71%
    09:00 +15°C° 0 mm 5 m/s 684 mmHg 62%
    10:00 +17°C° 0 mm 6 m/s 685 mmHg 54%
    11:00 +20°C° 0 mm 6 m/s 685 mmHg 45%
    12:00 +21°C° 0 mm 6 m/s 684 mmHg 41%
    13:00 +22°C° 0 mm 5 m/s 684 mmHg 37%
    14:00 +23°C° 0 mm 5 m/s 683 mmHg 33%
    15:00 +22°C° 0 mm 5 m/s 683 mmHg 34%
    16:00 +22°C° 0 mm 5 m/s 682 mmHg 35%
    17:00 +21°C° 0 mm 5 m/s 682 mmHg 37%
    18:00 +20°C° 0 mm 5 m/s 682 mmHg 44%
    19:00 +17°C° 0 mm 5 m/s 682 mmHg 51%
    20:00 +17°C° 0 mm 4 m/s 682 mmHg 59%
    21:00 +15°C° 0 mm 4 m/s 682 mmHg 63%
    22:00 +15°C° 0 mm 4 m/s 682 mmHg 66%
    23:00 +14°C° 0 mm 4 m/s 682 mmHg 70%
    Mostrar mais